Hourly Data Report for October 05, 2017

All times are specified in Local Standard Time (LST). Add 1 hour to adjust for Daylight Saving Time where and when it is observed.

IQALUIT CLIMATE
NUNAVUT

63°44'50.000" N
68°32'40.000" W
33.50 m
2402592
71321
XFB

Download Data

Hourly Data (October 2017)
Hourly Data Report for October 5, 2017
Temp Definition
°C
Dew Point Temp Definition
°C
Rel Hum Definition
%
Wind Dir Definition
10's deg

Wind Spd Definition
km/h
Visibility Definition
km
Stn Press Definition
kPa
Hmdx Definition


Wind Chill Definition


Weather Definition


TIME
00:00 1.2 -2.1 79 12 20   99.77     LegendNANA
01:00 1.8 -2.1 76 16 15   99.77     LegendNANA
02:00 1.5 -1.6 80 14 32   99.75     LegendNANA
03:00 1.5 -1.4 81 14 39   99.74     LegendNANA
04:00 1.4 -1.1 84 14 41   99.73     LegendNANA
05:00 1.1 -0.9 86 14 41   99.72     LegendNANA
06:00 1.4 -1.0 84 14 40   99.72     LegendNANA
07:00 1.5 -1.1 83 13 37   99.72     LegendNANA
08:00 1.5 -1.0 84 14 34   99.67     LegendNANA
09:00 1.6 -1.0 83 13 39   99.65     LegendNANA
10:00 1.6 -1.0 83 13 32   99.61     LegendNANA
11:00 1.7 -0.9 83 13 35   99.58     LegendNANA
12:00 1.5 -0.6 86 13 37   99.56     LegendNANA
13:00 1.2 -0.2 90 13 38   99.53     LegendNANA
14:00 0.9 -0.4 91 13 39   99.52     LegendNANA
15:00 0.8 -0.8 89 13 38   99.52     LegendNANA
16:00 0.6 -1.0 89 13 33   99.50     LegendNANA
17:00 0.4 -1.3 88 13 31   99.53     LegendNANA
18:00 0.5 -1.7 85 13 31   99.50     LegendNANA
19:00 0.3 -1.9 85 13 31   99.48     LegendNANA
20:00 0.4 -2.1 84 13 30   99.45     LegendNANA
21:00 0.3 -2.0 85 13 28   99.39     LegendNANA
22:00 -0.1 -2.0 87 12 21   99.33   -6 LegendNANA
23:00 0.0 -2.3 84 12 22   99.26   -6 LegendNANA

Notes on Data Quality.

Legend

  • E = Estimated
  • M = Missing
  • NA = Not Available
  • ‡ = Partner data that is not subject to review by the National Climate Archives
Date modified: